Location: Azul
(36.7830°S, 59.8500°W)
Time: 02:34:38
(UTC-03:00)

UWE-3 - Pass Details

Date: 28 October 2021
Orbit: 584 x 681 km, 97.7° (Epoch: 04 December)

Event Time Altitude Azimuth Distance (km) Brightness Sun altitude
Exits shadow 05:26:05 - 305° (NW) 2,180 ? -6.9°
Reaches altitude 10° 05:27:00 10° 295° (WNW) 2,010 ? -6.7°
Maximum altitude 05:28:48 12° 270° (W) 1,879 ? -6.4°
Drops below altitude 10° 05:30:38 10° 246° (WSW) 2,048 ? -6.1°
Sets 05:34:16 0° 216° (SW) 2,997 ? -5.4°
